Theta_e
350 349 349 348 347 346 344 343 340 337 336 334 332 333 335 337 337 337 337 336 336 336 336 335 335 334 332 331 330 328 327 325 324 323 323 323 324 324 324 324 324 324 324 324 324 324 323 323 322 322 323 325 325 326 326 326 327 329 331 331 331 331 331
349 348 349 348 347 346 344 342 339 335 333 333 333 335 338 338 338 338 338 337 337 337 336 336 335 335 333 331 330 328 326 324 323 323 323 323 323 323 323 323 323 322 323 323 323 323 323 322 322 322 322 323 324 325 325 326 326 326 327 328 329 329 329
348 349 350 348 346 345 343 342 339 335 332 333 335 337 339 339 339 338 338 337 337 337 336 335 334 333 332 330 330 328 326 324 323 322 322 322 321 321 321 321 321 321 321 321 321 321 321 321 321 321 322 324 325 325 326 326 326 326 326 326 328 329 329
347 348 349 347 345 344 342 340 338 335 334 334 336 337 338 338 338 338 337 337 337 336 335 332 330 329 328 327 327 326 324 323 322 321 320 320 319 319 319 318 318 318 318 318 318 318 318 318 319 319 320 323 325 326 327 326 326 326 326 326 327 330 332
345 347 348 346 345 343 341 339 338 337 335 335 337 338 337 337 337 337 337 337 336 335 332 329 328 327 325 325 324 323 323 321 320 320 319 318 318 318 317 317 317 317 316 316 315 315 316 316 317 317 318 322 325 327 327 328 328 328 327 328 328 330 332
345 346 347 345 343 342 341 339 339 338 337 337 338 338 339 338 337 337 337 337 336 333 332 330 330 328 326 325 323 322 321 320 319 319 318 318 317 317 316 316 316 315 314 314 313 314 315 316 317 318 319 323 325 327 328 328 328 328 329 330 330 331 332
346 346 346 344 343 343 342 341 340 340 339 339 339 339 340 339 338 338 337 336 335 333 333 333 332 329 325 324 323 321 321 320 319 318 317 317 316 316 316 315 315 315 314 314 315 315 317 318 320 321 323 325 326 328 328 328 329 329 329 330 330 331 332
345 346 345 344 343 343 342 341 341 341 340 339 339 339 339 338 338 338 336 335 334 334 334 334 331 327 325 324 324 322 321 320 319 318 317 316 315 315 315 315 317 317 318 318 319 320 321 322 323 324 325 326 327 328 329 329 329 329 329 330 330 331 332
345 345 344 343 343 341 341 341 340 340 339 338 338 337 337 337 336 336 335 335 335 334 333 332 329 327 327 326 325 323 321 319 317 317 316 315 315 315 316 317 318 320 321 321 322 323 323 323 324 325 326 327 327 328 328 328 329 329 329 329 329 329 330
344 344 343 342 342 341 340 340 340 339 338 337 337 337 337 336 335 335 335 334 334 333 331 330 329 328 327 325 323 321 319 317 316 315 314 314 315 316 317 319 320 321 321 322 323 323 323 324 324 325 326 327 327 327 326 326 327 327 327 328 328 328 328
343 342 343 341 340 340 339 340 339 338 337 336 337 337 336 334 333 333 333 332 332 331 330 329 327 326 324 321 319 317 316 315 314 313 314 314 316 317 318 319 320 321 321 322 323 323 323 324 325 325 326 326 326 326 325 326 326 326 326 326 327 327 327
343 342 341 340 339 339 338 338 338 337 336 336 336 335 334 333 332 332 332 332 331 329 328 327 324 323 320 318 316 315 314 313 311 311 312 314 315 317 317 318 318 319 320 321 322 323 323 324 325 325 325 325 325 324 325 325 325 325 325 325 326 326 326
342 341 340 339 338 338 337 337 336 336 336 335 334 334 333 332 332 332 331 330 329 327 325 324 321 319 317 315 314 312 311 310 309 310 312 313 315 315 316 316 315 316 319 321 322 323 323 324 324 325 324 324 323 323 323 323 323 323 323 324 324 324 324
340 339 339 338 338 337 337 337 336 336 336 334 333 333 332 331 331 330 329 328 326 324 323 321 318 316 313 312 310 309 309 308 309 310 311 312 313 313 314 314 314 317 319 321 322 322 322 323 323 323 323 322 322 323 323 323 322 322 322 322 323 323 323
339 338 338 338 339 338 337 337 336 336 335 333 332 332 331 330 329 328 327 325 324 322 320 318 315 313 311 310 309 309 309 310 310 310 310 311 312 313 314 315 317 319 320 320 321 320 320 319 319 320 320 319 320 320 320 320 319 318 318 318 319 320 320
339 338 339 340 340 340 338 337 337 335 334 333 333 333 331 329 328 326 325 323 322 320 317 315 312 311 310 310 311 312 312 312 312 311 310 312 314 315 316 317 319 319 319 319 319 319 318 318 317 317 316 316 316 316 317 316 316 316 316 316 316 316 316
339 339 341 341 341 340 338 337 336 335 335 335 333 332 330 327 326 324 323 321 320 317 314 312 310 310 312 314 314 315 315 315 314 313 312 313 315 316 317 318 318 319 318 318 318 318 317 317 315 315 315 315 315 316 316 316 316 316 315 315 315 315 315
341 340 341 340 340 338 337 337 336 335 335 335 333 331 327 325 324 322 321 320 317 314 311 310 310 312 314 316 316 317 317 315 315 315 314 314 315 317 318 318 318 318 317 317 317 316 315 314 314 314 314 315 315 316 316 315 316 315 315 315 314 314 313
341 341 340 338 338 337 337 337 336 335 335 333 330 328 325 324 322 320 319 318 315 312 311 311 312 314 317 316 316 317 317 315 315 315 314 314 314 315 316 316 316 316 315 315 314 313 312 312 312 312 313 314 315 316 315 315 315 314 313 313 313 312 311
342 341 339 338 338 338 337 337 336 335 334 331 327 325 324 322 321 319 318 316 313 312 313 312 313 316 317 316 316 317 316 315 316 316 315 314 313 314 313 313 313 313 312 312 311 310 309 309 309 310 311 312 313 313 313 312 311 311 310 310 309 309 308
342 340 339 339 339 337 337 336 335 333 330 327 325 324 322 321 320 318 316 314 313 313 314 314 314 315 316 316 316 316 315 315 316 316 315 313 313 313 312 312 311 310 310 309 309 308 308 307 307 307 307 307 308 308 308 307 307 307 306 306 305 305 305
341 340 339 338 337 336 336 334 332 329 327 325 324 322 320 319 318 315 314 313 313 314 314 314 314 315 316 316 315 316 315 315 316 317 315 313 313 313 312 311 310 309 309 308 308 307 307 306 305 304 304 304 304 305 305 305 305 304 304 304 304 304 304
340 339 337 336 336 335 333 331 329 327 325 324 322 319 318 316 314 313 313 313 314 314 313 314 314 315 315 315 314 315 315 314 316 317 315 313 313 312 312 311 310 309 308 308 308 307 306 305 304 304 304 304 304 304 305 304 304 304 304 304 304 304 304
338 337 335 334 333 332 330 329 327 325 323 321 318 316 314 313 313 313 313 314 314 314 314 314 314 315 315 314 314 315 314 313 316 317 316 314 313 312 311 311 310 309 308 308 308 308 307 306 305 305 305 305 304 305 305 304 304 304 304 304 304 304 304
336 334 332 331 331 330 329 327 324 321 320 318 316 313 313 313 314 314 314 314 314 314 313 313 313 314 314 313 313 314 313 313 316 317 315 313 313 312 311 310 310 309 309 308 308 308 308 307 306 305 305 305 305 305 305 304 304 304 304 303 303 303 304
332 331 330 330 330 328 325 321 317 317 318 316 314 313 313 315 315 315 314 313 314 314 313 312 312 312 313 312 313 313 312 313 316 316 314 313 312 312 312 311 311 310 309 308 309 309 308 307 306 306 305 305 305 305 305 305 304 304 304 303 303 302 303
329 329 329 328 326 322 319 316 315 315 316 315 313 313 314 315 316 316 315 314 314 314 313 313 313 312 312 312 313 313 312 313 316 315 313 312 313 313 312 312 312 311 310 309 309 309 309 307 306 306 306 306 306 306 305 305 305 304 304 303 303 302 302
328 328 326 324 321 317 316 315 314 315 315 314 315 315 316 316 317 317 317 315 313 313 313 314 313 312 312 313 313 312 312 313 314 313 311 312 313 313 312 312 313 312 311 310 309 309 309 308 307 306 306 306 306 306 306 305 305 304 304 303 303 303 302
326 325 322 321 317 315 315 314 313 314 314 314 315 315 316 316 316 317 317 316 314 313 313 313 313 312 312 313 313 312 311 311 311 310 310 311 312 312 311 311 311 311 311 310 310 310 309 308 308 307 306 306 306 306 306 305 305 305 304 304 303 303 303
323 321 319 317 316 315 315 313 312 313 314 315 316 316 315 316 316 316 316 316 314 314 313 313 312 311 311 313 312 311 311 310 310 310 310 311 311 311 311 310 310 310 309 309 310 310 310 309 308 307 307 306 306 306 306 306 305 305 304 304 303 303 303
320 319 317 316 316 315 314 312 312 312 313 314 315 315 315 315 315 315 314 314 314 314 313 312 311 311 311 312 311 310 310 310 310 310 311 311 311 310 310 310 309 309 308 308 309 310 310 309 308 307 307 306 306 306 306 306 305 305 304 304 304 303 303
319 319 317 316 316 315 314 313 312 313 313 313 313 314 314 314 314 313 314 314 313 314 313 311 311 311 311 311 310 310 310 310 310 310 310 310 310 310 309 309 309 308 308 308 308 309 310 308 308 307 307 307 306 306 306 306 306 305 304 304 304 304 303
320 319 317 316 315 315 314 313 312 313 313 312 312 313 314 314 313 313 314 314 312 313 313 311 310 311 311 310 309 309 310 310 309 310 310 310 310 309 308 309 309 308 308 308 308 308 308 308 308 308 307 307 306 306 306 306 306 305 305 304 304 304 303
320 319 317 316 315 315 314 314 314 314 313 312 312 313 314 314 314 314 316 314 312 312 312 310 310 310 310 310 309 309 310 310 309 309 310 310 309 309 308 309 309 308 308 308 308 308 308 308 308 308 308 307 306 306 306 306 306 306 305 304 304 304 304
320 319 318 316 316 315 315 314 315 315 314 314 314 313 314 315 315 315 317 315 312 312 312 310 309 309 309 309 309 310 310 310 309 309 310 309 309 309 309 309 309 309 308 307 307 308 308 308 308 308 307 306 306 306 306 305 305 306 305 305 304 304 304
320 320 318 317 316 315 315 315 315 316 316 316 316 316 316 317 316 317 317 314 312 312 311 309 309 309 309 310 310 310 310 310 309 309 309 309 309 309 309 309 309 309 308 307 307 307 307 307 308 307 307 306 305 305 305 305 305 305 305 305 305 304 304
319 319 319 318 316 315 315 315 316 316 316 316 316 317 317 317 317 317 316 313 311 311 310 309 309 309 310 310 310 310 311 310 310 309 309 309 309 309 309 309 309 309 309 308 308 308 308 308 307 307 307 306 305 305 304 304 304 305 305 305 305 304 304
318 319 319 318 316 315 315 316 317 317 317 316 316 316 316 317 317 316 312 309 309 309 309 309 309 310 310 310 310 311 311 310 310 310 310 309 309 309 309 309 309 309 309 310 309 309 309 308 308 307 307 307 306 306 305 305 305 305 305 305 305 305 304
Wind_Speed
11 10 9 8 8 8 8 7 8 8 9 10 12 13 12 11 10 9 10 10 11 11 12 12 13 13 15 17 18 19 20 21 21 20 20 19 18 19 19 20 20 20 20 20 20 20 20 20 20 20 19 18 17 17 17 16 16 15 14 14 14 14 14
11 11 10 10 9 10 9 8 8 8 9 11 12 11 9 8 7 7 8 8 10 10 11 12 13 14 16 17 19 20 20 21 20 20 19 19 18 18 18 18 19 19 19 20 19 19 19 19 19 19 19 18 18 17 17 17 16 17 16 16 15 15 14
11 12 12 11 11 11 10 10 9 10 11 13 12 9 7 6 5 5 6 8 9 9 10 12 12 14 15 16 18 19 19 20 20 20 20 20 19 19 19 18 18 18 18 18 19 19 19 19 19 19 18 18 17 17 16 16 16 16 17 17 16 14 13
11 12 12 12 13 12 11 10 10 11 12 12 11 8 6 4 2 3 3 5 6 7 9 10 11 12 14 15 16 17 18 18 18 19 19 20 20 21 21 21 20 20 19 19 19 19 19 19 18 18 18 17 17 17 16 15 15 14 15 15 15 13 12
12 13 14 15 14 13 12 11 11 11 12 12 10 9 7 5 4 3 2 2 4 6 7 9 10 12 13 14 15 16 16 17 18 19 20 21 22 23 23 23 23 22 21 20 19 18 18 17 17 18 18 17 17 17 16 16 15 14 13 13 13 12 12
14 15 17 17 16 14 13 12 12 11 11 10 9 7 6 7 6 4 2 1 3 4 6 9 12 13 14 15 15 16 17 18 19 20 21 22 22 22 22 22 21 21 20 19 18 17 16 16 16 17 17 17 17 16 16 16 16 15 14 13 12 12 12
15 16 18 18 17 15 13 13 12 11 9 8 7 6 5 6 6 6 4 2 2 4 8 12 14 14 15 16 17 18 20 21 22 23 24 23 23 22 21 20 19 18 17 16 15 15 15 15 15 15 16 16 16 16 16 16 16 16 15 14 13 12 12
15 16 18 18 16 14 14 13 12 11 10 9 7 5 4 4 6 6 4 3 5 9 12 14 15 15 17 19 20 22 23 24 24 24 24 23 22 21 20 19 18 16 15 14 14 14 14 15 15 15 15 16 16 16 16 16 17 16 16 16 15 14 13
15 16 17 17 16 15 15 14 14 15 12 8 5 3 2 4 5 6 5 7 10 12 13 13 14 16 18 20 22 23 24 24 24 23 23 22 21 20 19 18 17 16 15 14 14 13 13 14 14 14 15 15 15 15 15 16 16 16 16 16 16 16 15
16 17 17 17 17 17 17 16 16 15 11 6 5 5 5 5 5 5 7 9 9 10 11 13 15 17 19 20 22 23 23 23 23 23 22 21 20 19 18 17 16 15 15 14 14 13 13 13 13 13 14 13 13 13 13 14 15 16 16 16 17 16 16
17 18 19 19 19 18 16 15 13 10 6 4 4 6 5 5 7 7 5 6 8 10 12 14 16 17 19 21 22 23 23 23 22 21 20 19 19 18 18 17 16 16 16 15 14 14 13 13 13 13 12 12 12 12 13 13 14 15 15 16 16 15 15
19 20 21 21 19 15 12 9 6 2 3 4 4 7 6 5 6 5 4 7 9 11 13 15 17 20 22 22 22 22 21 20 19 19 18 18 18 18 18 18 18 17 17 16 15 14 13 13 13 12 12 13 14 14 13 13 13 14 15 14 14 14 15
20 20 20 18 14 10 7 4 1 4 3 5 6 7 5 2 1 2 6 8 9 12 15 17 19 21 21 21 20 19 18 18 17 16 16 17 17 18 18 18 18 18 17 16 15 14 14 13 13 13 13 14 15 14 14 13 13 14 14 13 13 14 15
19 19 17 14 11 7 4 2 1 2 6 8 6 5 5 3 1 4 7 8 11 14 16 18 19 19 19 18 17 16 15 15 15 15 15 16 16 16 16 15 16 16 16 15 14 15 15 15 14 13 13 13 13 13 14 15 15 15 15 15 15 16 17
18 17 14 12 12 8 3 3 4 6 8 8 6 6 5 2 3 6 8 11 13 15 16 17 17 16 16 15 15 14 14 13 13 14 15 15 15 14 14 13 13 14 14 13 14 15 15 16 15 14 14 14 14 15 16 17 18 18 18 18 18 18 19
15 13 12 12 12 7 3 5 8 9 8 8 6 3 2 3 5 8 10 12 13 15 15 15 14 13 12 12 12 12 12 12 14 16 15 14 14 14 13 13 12 12 13 13 14 14 15 17 17 17 17 17 17 17 18 18 18 18 18 18 19 19 19
13 12 11 12 10 6 5 9 11 10 8 5 2 1 3 5 8 10 11 12 13 14 13 12 11 10 9 9 10 10 11 13 15 16 15 14 13 13 13 12 12 12 13 14 15 16 16 17 18 18 18 18 18 18 18 18 18 17 17 18 18 19 19
13 12 12 11 8 8 10 11 10 7 5 2 1 3 5 7 9 10 11 12 13 12 11 10 9 7 7 8 8 9 10 13 14 14 14 14 13 12 12 12 12 13 14 15 16 17 17 17 17 17 18 17 17 17 17 18 19 19 19 19 19 20 20
13 13 12 10 10 11 11 10 7 4 2 0 2 4 6 8 9 11 12 12 12 10 10 9 7 6 6 7 7 8 10 12 12 14 15 14 13 12 12 12 13 14 15 15 16 16 16 16 16 16 16 16 17 17 17 18 20 20 20 20 20 20 20
13 13 12 10 10 11 9 7 5 3 2 1 3 5 8 10 11 12 12 11 10 9 9 8 6 4 6 7 7 8 10 11 12 13 15 15 15 14 14 14 14 15 15 15 16 15 15 16 15 16 16 16 17 17 17 18 19 19 19 19 20 19 19
13 13 13 12 11 10 7 5 4 2 0 3 6 8 10 10 11 12 11 10 8 7 8 7 4 4 6 7 7 8 10 12 11 11 14 15 15 15 15 15 15 15 15 15 15 15 15 15 15 15 15 16 16 16 17 17 18 18 18 19 19 19 19
14 14 13 12 11 9 7 5 3 2 3 6 8 9 9 10 11 11 9 8 8 8 8 6 4 5 7 8 7 8 10 12 10 9 13 15 15 16 16 16 15 15 15 16 16 15 16 15 15 15 15 15 16 16 17 17 17 17 18 19 20 20 19
15 15 14 12 10 8 7 5 4 4 5 7 8 9 9 9 9 8 8 8 9 9 9 8 6 6 7 8 8 8 10 12 9 7 12 16 15 15 15 15 16 16 17 17 17 17 17 16 16 16 16 17 18 18 19 18 18 18 20 20 21 20 19
15 15 13 12 10 9 8 6 4 5 6 8 9 9 8 6 7 8 9 9 9 9 9 9 8 7 7 9 9 9 11 11 8 7 11 15 16 15 14 14 15 17 17 18 18 18 18 18 18 18 18 19 19 20 20 20 20 21 22 22 23 22 20
17 14 11 9 8 7 7 5 6 7 8 9 9 7 4 5 7 9 9 10 9 8 9 9 10 9 9 10 10 11 11 10 8 7 10 14 15 14 13 13 14 16 17 17 18 19 19 18 18 18 19 19 20 20 21 22 22 23 23 24 24 23 20
13 10 10 9 8 6 6 7 8 8 8 8 7 5 4 6 7 8 9 10 9 8 9 10 11 11 11 11 11 11 11 10 7 7 10 12 12 10 10 11 12 13 15 17 18 18 18 18 18 18 19 19 20 21 22 23 24 24 25 25 26 25 21
9 9 10 9 7 7 8 7 6 7 7 7 7 5 5 4 5 7 8 9 9 9 10 10 12 12 12 11 10 11 11 9 6 7 9 9 9 7 7 10 11 12 13 15 16 17 17 17 18 18 18 18 19 20 21 22 24 25 26 27 27 27 24
11 11 9 7 7 7 7 6 5 6 7 7 7 6 5 5 6 6 8 9 9 10 11 11 12 13 12 10 10 11 10 8 7 8 7 6 6 6 7 9 11 12 12 12 14 16 16 16 17 17 17 17 17 18 19 20 22 24 25 27 27 28 27
11 8 7 7 7 7 6 5 6 6 6 5 5 4 5 5 6 6 7 8 9 10 11 11 12 13 11 9 9 9 9 8 8 8 6 5 6 7 8 10 12 12 12 11 12 13 14 14 16 17 18 17 16 16 17 18 20 22 24 25 26 27 29
7 7 8 9 8 7 6 6 6 5 4 3 3 3 4 5 7 7 7 8 9 9 10 11 12 12 10 9 8 7 7 8 9 9 8 7 7 8 10 11 12 13 13 12 11 12 13 13 15 17 18 18 16 15 16 16 17 19 21 23 24 25 28
8 9 9 8 8 7 6 6 5 5 4 2 2 3 4 6 7 8 9 10 10 9 10 11 11 10 9 8 7 6 5 7 8 9 9 8 8 10 10 11 11 12 13 13 11 11 11 12 13 16 18 18 17 16 15 15 16 16 19 21 22 23 25
9 9 9 8 8 7 6 5 5 4 3 3 3 3 5 6 7 8 10 11 9 9 10 11 10 8 8 8 7 4 4 5 7 8 9 9 9 10 9 9 11 12 13 13 12 10 11 11 12 15 17 19 19 17 15 14 15 15 16 18 20 20 22
8 8 8 8 7 7 6 6 6 5 4 3 3 3 5 7 7 8 11 12 9 8 10 11 9 7 7 7 6 3 2 5 7 8 8 9 10 9 8 8 10 12 13 13 12 11 11 11 11 14 17 19 19 19 17 15 14 14 15 16 18 19 19
7 8 8 7 7 6 6 6 6 6 5 4 3 3 5 7 8 8 11 12 10 9 10 10 8 7 7 6 3 2 3 5 7 7 7 8 9 9 7 7 9 12 13 13 12 12 13 13 12 14 17 19 19 20 18 16 15 15 15 16 17 17 18
6 7 7 7 6 5 5 5 6 6 5 5 4 4 5 7 8 9 10 11 10 9 9 9 8 8 5 3 4 3 4 5 6 6 6 7 8 8 9 9 9 11 13 13 12 13 13 12 12 14 16 18 19 20 20 19 17 16 15 15 16 16 16
6 7 7 6 5 4 3 4 5 5 5 5 6 6 6 8 9 10 10 10 9 9 9 8 7 7 6 6 5 5 5 5 6 6 6 6 6 7 9 9 10 11 13 13 12 11 10 10 11 13 16 18 18 18 18 19 18 16 14 14 14 15 15
5 5 6 6 4 2 2 3 4 4 4 5 6 7 7 9 10 10 10 8 7 8 8 6 5 6 6 6 5 6 6 7 7 7 7 6 7 8 9 9 9 10 11 12 12 12 11 11 10 11 15 18 19 18 17 16 16 15 14 14 14 15 15
4 5 6 6 3 1 1 2 3 4 5 6 6 7 8 9 10 10 8 6 7 8 6 4 4 5 4 5 6 7 7 7 8 9 9 8 9 9 9 9 9 9 10 11 12 12 13 12 11 11 13 16 19 20 20 19 18 16 15 16 16 16 16
Wind_Direction
188 192 193 186 174 161 151 142 130 119 114 113 112 109 103 97 88 74 65 55 46 43 36 27 21 17 16 15 14 11 9 7 5 3 1 358 356 353 350 349 349 347 346 346 346 346 345 343 341 340 339 338 336 335 335 335 334 332 330 330 331 333 335
185 188 188 179 168 160 150 138 127 117 112 115 117 115 104 92 78 55 44 33 27 27 22 15 13 11 9 9 7 5 4 2 0 358 355 354 353 351 350 348 345 344 341 340 339 338 338 338 338 337 334 333 332 331 330 329 330 329 329 328 328 329 329
183 186 183 175 165 158 149 139 131 124 123 125 125 120 109 95 67 41 30 22 19 17 12 9 10 9 5 3 1 359 359 358 355 353 351 350 348 346 346 344 341 338 336 333 331 331 331 332 332 332 331 330 328 328 328 327 327 326 327 328 329 331 331
184 188 183 174 165 157 150 144 139 135 134 135 135 134 135 130 96 67 48 31 18 12 13 13 11 9 4 0 359 357 356 354 351 349 348 346 344 342 341 339 337 336 334 333 330 328 327 326 326 326 325 325 326 328 328 328 328 326 325 324 326 331 334
182 187 182 174 166 160 157 151 150 150 150 150 148 147 152 158 156 144 115 40 14 15 23 20 11 6 1 358 358 356 354 352 349 348 346 343 341 339 337 335 335 335 335 334 331 329 328 325 324 322 321 323 324 325 327 328 329 330 328 325 323 324 326
180 183 179 174 168 167 167 165 166 166 164 164 162 162 171 179 183 186 196 327 11 26 24 11 1 357 355 355 355 353 351 349 348 347 344 341 340 338 337 336 336 336 337 336 334 333 331 329 327 324 323 324 323 323 324 325 327 329 330 329 324 320 319
177 178 173 171 170 172 177 177 177 177 175 175 173 171 181 194 212 228 239 278 3 6 353 348 348 349 351 352 351 349 348 347 346 343 341 340 339 339 341 343 345 347 345 342 340 337 336 335 334 332 329 327 325 324 323 323 325 327 328 328 325 321 319
174 173 169 170 171 173 180 183 183 181 173 171 172 169 182 234 250 241 242 304 333 333 332 334 340 346 348 348 347 345 345 344 341 340 338 338 339 342 347 350 354 357 355 352 349 345 343 342 340 337 334 331 328 326 326 325 327 327 327 327 326 324 322
170 169 168 168 169 173 178 180 181 178 167 164 182 200 242 250 240 238 272 313 322 327 334 338 341 343 342 341 340 339 339 338 337 337 337 339 343 348 353 356 359 0 1 0 357 351 347 344 342 338 335 332 330 329 328 327 328 329 328 327 326 324 322
170 167 164 163 164 168 170 171 179 182 179 190 238 268 263 234 239 266 296 316 329 337 341 342 339 337 337 336 336 337 337 338 338 339 340 344 349 354 358 1 1 1 2 2 359 355 352 348 343 340 339 339 336 332 330 329 329 329 328 327 327 325 323
168 164 160 159 160 163 165 170 180 188 194 216 245 242 229 250 286 299 311 328 341 344 340 338 337 338 340 341 341 341 340 340 339 339 343 347 351 356 359 0 360 1 2 2 359 356 353 351 349 348 347 345 341 336 333 332 330 328 328 327 327 326 327
166 162 158 157 158 160 160 162 172 218 268 257 231 213 219 270 295 307 341 343 343 342 340 341 344 345 345 343 341 339 338 336 335 338 344 347 350 354 356 356 356 357 359 0 359 356 355 355 356 355 351 347 347 346 345 344 340 336 333 328 326 327 329
162 158 155 153 153 156 157 163 282 319 270 215 203 206 219 248 272 341 347 342 343 344 345 348 347 344 339 335 334 334 333 334 336 340 345 347 348 350 351 351 350 352 357 360 359 359 360 1 0 357 354 352 353 353 352 351 346 341 336 331 328 329 328
156 155 154 154 152 153 154 163 227 213 184 181 175 165 157 144 84 356 348 347 351 350 347 344 339 335 334 334 337 338 338 341 343 345 349 351 351 351 352 352 351 353 358 0 1 4 5 4 0 356 353 351 350 346 343 339 336 334 332 329 326 326 324
158 160 162 160 156 153 154 166 175 177 172 162 143 131 129 105 4 358 356 353 351 345 339 336 336 339 341 343 347 350 350 352 352 353 356 358 360 2 3 2 0 0 1 2 4 4 3 360 354 349 347 345 341 338 335 334 334 335 335 333 328 323 322
165 167 170 168 164 167 185 177 172 170 159 145 136 128 73 11 1 358 351 346 342 338 339 343 347 350 351 354 359 2 3 4 4 4 6 9 12 15 15 11 7 3 0 0 1 360 358 354 347 344 344 342 340 340 339 340 343 343 341 339 335 332 329
170 170 175 178 178 180 172 162 162 163 158 151 143 50 10 360 354 348 344 344 344 345 351 355 357 359 2 8 12 12 13 14 13 13 17 22 23 23 21 15 8 2 359 358 358 357 355 350 344 343 343 342 342 343 342 343 344 345 344 342 340 339 338
174 174 176 177 173 160 157 160 161 162 162 149 45 10 358 353 351 349 350 352 352 356 1 2 5 14 17 20 20 17 19 21 19 18 23 27 27 25 22 14 7 3 0 360 359 357 354 350 345 343 343 343 343 342 341 339 339 343 344 343 340 337 337
177 179 176 169 162 156 159 163 161 161 171 7 354 355 359 359 357 355 355 356 358 4 9 9 19 31 26 25 22 15 18 21 20 20 23 25 26 24 18 12 9 6 4 3 2 359 355 351 347 344 343 342 341 341 339 337 338 341 341 339 337 334 334
180 180 172 166 167 166 167 170 169 187 218 345 4 9 9 1 355 355 355 357 5 15 20 19 25 34 27 24 18 11 14 16 13 16 20 23 24 22 18 14 11 7 5 4 2 360 357 354 351 349 346 343 342 341 340 339 340 341 339 336 334 334 334
185 181 175 173 174 171 171 179 188 200 174 35 18 11 5 355 353 354 353 358 12 23 24 21 19 23 24 18 8 6 10 8 6 11 18 22 22 19 17 14 10 9 9 7 5 3 1 358 355 354 351 348 348 348 348 348 346 343 340 338 336 337 338
186 181 176 172 171 170 171 175 165 112 48 27 14 5 359 353 353 355 359 11 24 26 20 14 11 16 17 11 3 3 5 1 358 5 13 17 17 15 15 15 14 16 15 13 11 9 7 5 3 2 2 2 1 3 3 359 356 354 350 346 344 345 346
180 173 166 161 165 165 157 143 108 65 32 13 3 358 354 352 358 14 28 31 33 30 20 18 24 24 16 11 6 2 360 356 351 356 5 8 11 13 14 17 19 21 20 19 18 18 17 17 17 16 15 14 13 15 14 11 9 9 3 357 356 355 355
169 162 156 155 159 151 135 113 69 37 11 359 359 357 354 2 27 44 45 37 35 31 22 21 28 24 14 10 6 357 355 354 348 351 360 3 8 11 12 17 22 23 22 22 23 24 23 23 24 22 21 21 20 22 22 20 19 18 13 8 5 3 2
155 150 145 142 139 127 109 74 36 14 360 360 4 6 22 54 59 52 41 34 34 28 21 22 23 16 7 3 359 354 357 359 351 353 0 1 4 9 11 15 22 23 22 22 22 24 24 24 23 22 22 23 23 23 24 24 23 22 19 15 11 8 5
143 142 139 134 124 101 72 49 27 4 356 6 16 36 81 82 62 45 34 30 28 22 19 19 16 11 5 2 359 357 3 6 356 354 1 358 358 7 12 12 16 19 20 19 19 21 23 23 21 19 18 21 22 22 22 23 24 22 21 19 16 13 9
130 134 132 123 107 77 59 48 24 358 0 22 41 72 97 76 44 33 24 20 17 12 10 7 4 4 2 2 1 358 4 10 0 354 1 358 354 1 9 5 4 7 13 16 16 17 19 20 17 14 12 14 17 19 19 20 21 20 20 20 19 17 15
134 130 120 104 91 80 69 49 18 4 15 40 62 78 74 44 25 16 9 6 5 5 5 1 356 356 357 358 358 358 4 8 354 346 349 348 345 351 357 356 352 353 359 5 9 12 14 15 15 12 9 8 11 14 15 16 17 18 18 19 19 19 19
131 122 114 109 103 92 73 43 24 19 27 46 61 52 36 28 18 3 355 356 357 0 3 358 352 353 355 355 357 2 4 360 355 356 358 357 356 353 353 353 348 344 347 351 358 4 7 9 12 11 8 7 7 9 11 12 14 15 16 17 17 17 20
124 127 128 122 108 89 68 49 40 38 40 50 47 22 13 16 10 357 350 350 351 356 360 356 353 354 356 356 359 5 8 10 18 26 25 19 11 359 355 354 349 346 349 350 351 355 358 2 8 10 9 7 5 4 7 9 11 13 15 16 15 15 18
129 130 127 120 109 91 73 62 59 60 58 56 36 12 6 6 2 358 358 354 348 349 357 359 357 357 358 1 4 8 18 22 24 22 15 7 1 358 357 358 356 356 357 356 352 348 349 356 4 8 10 8 2 359 1 5 8 11 14 16 15 14 16
131 130 129 125 111 94 83 76 69 66 60 40 22 10 3 4 7 8 9 4 352 349 1 5 2 357 358 3 6 15 27 15 6 7 8 3 358 357 358 3 4 0 356 356 352 343 341 351 0 4 7 5 1 359 358 359 3 9 13 15 15 13 13
136 136 137 129 110 96 91 81 67 59 49 27 11 1 355 0 7 9 10 11 10 8 9 8 3 357 355 359 7 29 26 360 359 8 12 8 5 6 8 8 4 358 354 353 350 341 340 347 353 357 0 0 359 0 0 357 358 4 9 13 14 13 11
148 146 146 137 118 102 90 75 63 55 47 26 3 347 347 354 359 360 6 12 19 21 14 7 1 353 348 355 23 52 15 1 8 18 18 10 8 12 14 8 360 358 357 353 345 342 343 344 346 351 356 357 355 357 1 2 358 357 2 9 12 11 7
165 162 157 146 127 107 87 67 55 48 40 22 3 349 346 353 357 360 4 10 19 24 16 5 2 5 11 47 74 52 13 4 9 13 9 4 3 1 2 2 356 356 0 358 350 347 348 349 351 355 360 1 357 353 356 1 359 353 353 359 6 8 5
182 177 170 161 144 120 86 52 44 45 30 6 353 346 344 349 352 356 1 7 19 25 14 7 23 51 77 87 71 35 10 2 360 359 356 353 351 349 352 356 356 359 8 15 17 16 17 15 7 0 2 7 8 1 356 354 353 349 345 346 354 1 2
201 199 189 179 164 128 52 27 38 41 12 347 340 336 337 342 345 349 357 8 24 25 13 14 52 86 91 71 41 12 360 351 344 347 347 338 338 345 352 357 359 4 15 24 28 32 37 36 21 5 3 9 16 19 13 3 355 349 341 338 343 348 353
208 212 202 188 183 237 338 14 27 17 350 339 336 335 339 342 343 348 356 15 30 27 15 21 74 103 90 42 8 351 349 341 332 338 344 337 333 341 352 359 2 7 14 17 17 19 25 29 25 13 7 9 16 23 24 21 16 6 351 341 340 341 345